Home > Weather > Cluj-Napoca > Past weeks

Flag for Romania Weather for the Past 2 Weeks in Cluj-Napoca, Romania

Now
39 °F

Passing clouds.


Feels Like: 39 °F
Forecast: 42 / 59 °F
Wind: 2 mph from Southeast

Location: Cluj Airport-Napoca

Current Time: Feb 14, 2016 at 4:07:20 AM

Latest Report: Feb 14, 2016 at 3:00 AM


Visibility: 5 mi

Pressure: 29.45 "Hg

Humidity: 100%

Dew point: 39 °F

Location of Cluj-NapocaLocation

Historic Weather in Cluj-Napoca — Graph

°F

Cluj-Napoca Temperature Yesterday

Maximum temperature yesterday: 48 °F (at 2:30 PM)
Minimum temperature yesterday: 34 °F (at 5:30 AM)
Average temperature yesterday: 41 °F

High & Low Weather Summary for the Past Weeks

 TemperatureHumidityPressure
High55 °F (Feb 9, 4:30 PM)100% (Jan 30, 3:00 AM)30.45 "Hg (Jan 30, 3:00 AM)
Low25 °F (Feb 12, 7:30 AM)46% (Feb 12, 5:00 PM)29.30 "Hg (Feb 10, 4:30 PM)
Average38 °F86%29.97 "Hg
* Reported Jan 30 3:00 AM — Feb 14 3:00 AM, Cluj-Napoca, Weather by CustomWeather, © 2016

Note: Actual official high and low records may vary slightly from our data, if they occured in-between our weather recording intervals... More about our weather records

Advertising

Cluj-Napoca Weather History for the Previous 24 Hours

 ConditionsComfort  
Time TempWeatherWind HumidityBarometerVisibility
3:00 AM
Sun, Feb 14
39 °FPassing clouds.2 mph100%29.45 "Hg5 mi
2:00 AM39 °FPartly cloudy.3 mph100%29.45 "HgN/A
1:00 AM39 °FLight rain. Passing clouds.5 mph100%29.45 "HgN/A
12:00 AM41 °FLight rain. Passing clouds.1 mph100%29.42 "HgN/A
11:30 PM
Sat, Feb 13
39 °FPartly cloudy.1 mph100%29.42 "HgN/A
11:00 PM41 °FPassing clouds.3 mph100%29.42 "HgN/A
10:30 PM41 °FLight rain. Mostly cloudy.1 mph100%29.42 "HgN/A
10:00 PM41 °FLight rain. Mostly cloudy.3 mph100%29.42 "HgN/A
9:30 PM43 °FLight rain. Mostly cloudy.1 mph93%29.42 "HgN/A
9:00 PM43 °FLight rain. Mostly cloudy.5 mph93%29.42 "HgN/A
8:30 PM45 °FLight rain. Mostly cloudy.3 mph87%29.42 "HgN/A
8:00 PM43 °FLight rain. Overcast.1 mph93%29.39 "HgN/A
7:30 PM43 °FPassing clouds.6 mph100%29.39 "HgN/A
7:00 PM45 °FPassing clouds.5 mph93%29.39 "HgN/A
6:30 PM45 °FPartly cloudy.1 mph93%29.39 "HgN/A
6:00 PM45 °FLight rain. Partly cloudy.3 mph93%29.39 "HgN/A
5:30 PM45 °FLight rain. More clouds than sun.3 mph93%29.39 "HgN/A
5:00 PM45 °FLight rain. More clouds than sun.5 mph87%29.39 "HgN/A
4:30 PM46 °FLight rain. Mostly cloudy.3 mph76%29.39 "HgN/A
4:00 PM46 °FLight rain. Mostly cloudy.No wind66%29.39 "HgN/A
3:30 PM46 °FMore clouds than sun.2 mph71%29.39 "HgN/A
3:00 PM48 °FMore clouds than sun.5 mph62%29.39 "HgN/A
2:30 PM48 °FPartly sunny.5 mph62%29.42 "HgN/A
2:00 PM46 °FPartly sunny.7 mph62%29.42 "HgN/A
1:30 PM46 °FPartly sunny.8 mph62%29.45 "HgN/A
1:00 PM46 °FPartly sunny.8 mph62%29.47 "HgN/A
12:30 PM46 °FScattered clouds.9 mph62%29.47 "HgN/A
12:00 PM45 °FSunny.9 mph61%29.47 "Hg10 mi
11:30 AM43 °FSunny.7 mph66%29.50 "Hg10 mi
11:00 AM41 °FSunny.5 mph70%29.50 "Hg10 mi
10:30 AM37 °FScattered clouds.9 mph75%29.53 "HgN/A
10:00 AM37 °FPartly sunny.9 mph75%29.56 "HgN/A
9:30 AM37 °FPartly sunny.9 mph75%29.56 "HgN/A
9:00 AM37 °FPartly sunny.9 mph75%29.56 "HgN/A
8:30 AM36 °FPartly sunny.9 mph81%29.56 "HgN/A
8:00 AM36 °FPartly sunny.10 mph75%29.56 "HgN/A
7:30 AM36 °FPassing clouds.6 mph75%29.59 "HgN/A
7:00 AM34 °FPassing clouds.6 mph81%29.59 "HgN/A
6:30 AM36 °FPassing clouds.8 mph75%29.62 "HgN/A
6:00 AM34 °FPassing clouds.5 mph81%29.62 "HgN/A
5:30 AM34 °FClear.9 mph81%29.62 "Hg10 mi
5:00 AM36 °FPassing clouds.7 mph75%29.62 "HgN/A
4:00 AM36 °FClear.10 mph75%29.65 "Hg10 mi
Weather by CustomWeather, © 2016

See weather overviewHow to use our weather pages